Tracking 33200 objects as of 17-Feb-2026
HD Live streaming from Space Station
objects crossing your sky now

R5-S2

Track R5-S2 now!
10-day predictions


NORAD ID: 60207
Int'l Code: 2024-126E
Perigee: 439.9 km
Apogee: 462.3 km
Inclination: 97.3 °
Period: 93.5 minutes
Semi major axis: 6822 km
RCS: Unknown
Launch date: July 4, 2024
Source: United States (US)
Launch site: AIR FORCE WESTERN TEST RANGE (AFWTR)
Your satellite tracking list
Your tracking list is empty




NASA's NSSDC Master Catalog

Two Line Element Set (TLE):
1 60207U 24125E   26047.54938429  .00019076  00000-0  46602-3 0  9996
2 60207  97.2511 260.1656 0016388 311.8409  48.1438 15.40735448 90581
Source of the keplerian elements: AFSPC